Find Starlink 2143

NORAD ID: 47733 Int'l Des: 2021-017 Owner: SPXS Country: US Constellation: starlink operational
LEOCIRCULAR

当前视图

正在加载3D地球...

About Starlink 2143

Starlink 2143 (NORAD 47733) is a starlink constellation satellite (v1.0) launched Mar 4, 2021 by SPXS of US. It operates in LEO, CIRCULAR orbit with a mass of 260.00 kg.

即将过境

Passes for default location (London). Set your location on the main map for personalized predictions.

高度历史

Loading altitude history...

两行轨道根数

1 47733U 21017M 26263.62155644 .00000526 00000-0 28716-4 0 9998
2 47733 53.1606 29.5127 0001126 77.8749 282.2379 15.31700911307589
Epoch: Sep 20, 2026 • Age: 12 hours

当前状态

高度 471.3 km
远地点 / 近地点 N/A
速度 7.63 km/s
星下点 3.68°N, 164.87°E
发射日期 Mar 4, 2021
运行时间 5.5 years
类型 internet

技术详情

分类 Payload
质量 260.00 kg
干质量 248.00 kg
长度 0.20 m
跨度 9.00 m
形状 ? Box + pan
制造商 SPXS
平台类型 Starlink
阶段状态 In Orbit
所有者/国家 SPXS/US

Most Searched